Location: Asheville, NC
(35.6000°N, 82.5500°W)
Time: 22:11:51
(UTC-04:00)

SEEDS - Pass Details

Date: 11 January 2018
Orbit: 588 x 604 km, 97.5° (Epoch: 20 July)

Event Time Altitude Azimuth Distance (km) Brightness Sun altitude
Rises 18:46:42 0° 157° (SSE) 2,840 ? -14.0°
Reaches altitude 10° 18:48:53 10° 153° (SSE) 1,940 ? -14.5°
Maximum altitude 18:53:00 56° 75° (ENE) 721 ? -15.3°
Drops below altitude 10° 18:57:09 10° 358° (N) 1,947 ? -16.1°
Sets 18:59:21 0° 354° (N) 2,851 ? -16.5°
